Location: Mountain View
(37.3861°N, 122.0839°W)
Time: 11:39:20
(UTC-07:00)

ISS - Pass Details

Date: 02 October 2021
Orbit: 417 x 423 km, 51.6° (Epoch: 27 October)

Event Time Altitude Azimuth Distance (km) Brightness Sun altitude
Rises 19:49:58 0° 319° (NW) 2,364 0.8 -12.9°
Reaches altitude 10° 19:52:25 10° 336° (NNW) 1,499 -0.6 -13.3°
Maximum altitude 19:55:03 21° 28° (NNE) 1,005 -2.1 -13.9°
Enters shadow 19:55:57 19° 51° (NE) 1,074 -2.1 -14.0°
